Date String (YYYY-MM-DD hh:mm:ss) UTC,Instrument flags,absolute air pressure of the measurement (hPa),sample flow rate (lpm),inlet stack bypass flow (lpm),air temperature of the measurement (°C),ambient temperature measured by the external sensor (°C),aerosol sample conditioner tube jacket temperature (°C),OPC LED temperature (°C),internal box temperature (°C),relative humidity of the measurement (%),span deviation,mass concentration of particles derived from Lorenz-Mie calculation of OPC scattering (μg/m³),mass concentration of particles derived from Lorenz-Mie calculation of OPC scattering (μg/m³),mass concentration of particles derived from Lorenz-Mie calculation of OPC scattering (μg/m³)
DateTimeUTC,F1_M11,P_M11,Q1_M11,Q2_M11,T1_M11,T2_M11,T3_M11,T4_M11,T5_M11,U1_M11,ZSPAN_M11,X2_M11,X0_M11,X1_M11
2023-06-12 03:00:00,SystemResetWarning,0831.7,5.00,000.00,029.6,027.3,000.0,038.2,031.0,30.0,0000.0,0004.06,0007.74,0003.40
2023-06-12 03:01:00,SystemResetWarning,0831.7,4.99,000.00,029.6,027.5,000.0,038.2,031.1,30.0,0000.0,0004.10,0007.91,0003.41
2023-06-12 03:02:00,SystemResetWarning,0831.7,4.99,000.00,029.6,027.6,000.0,038.2,031.1,29.8,0000.0,0004.09,0007.97,0003.40
2023-06-12 03:03:00,SystemResetWarning,0831.7,5.00,000.00,029.6,027.7,000.0,038.2,031.1,29.8,0000.0,0004.09,0007.98,0003.39
2023-06-12 03:04:00,SystemResetWarning,0831.7,5.00,000.00,029.6,027.8,000.0,038.2,031.1,30.0,0000.0,0004.06,0007.88,0003.38
2023-06-12 03:05:00,SystemResetWarning,0831.7,5.00,000.00,029.6,027.9,000.0,038.2,031.2,29.7,0000.0,0004.04,0007.70,0003.38
2023-06-12 03:06:00,SystemResetWarning,0831.7,4.99,000.00,029.6,028.0,000.0,038.2,031.2,30.0,0000.0,0004.04,0007.53,0003.39
2023-06-12 03:07:00,SystemResetWarning,0831.8,5.00,000.00,029.6,028.0,000.0,038.2,031.2,30.8,0000.0,0004.06,0007.45,0003.43
2023-06-12 03:08:00,SystemResetWarning,0831.8,5.00,000.00,029.7,028.1,000.0,038.2,031.3,31.8,0000.0,0004.10,0007.40,0003.52
2023-06-12 03:09:00,SystemResetWarning,0832.0,5.00,000.00,029.7,028.1,000.0,038.2,031.3,32.3,0000.0,0004.22,0007.53,0003.63
2023-06-12 03:10:00,SystemResetWarning,0831.8,5.00,000.00,029.7,028.2,000.0,038.2,031.3,32.7,0000.0,0004.34,0007.61,0003.75
2023-06-12 03:11:00,SystemResetWarning,0831.8,4.99,000.00,029.7,028.2,000.0,038.2,031.3,32.8,0000.0,0004.48,0007.87,0003.89
2023-06-12 03:12:00,SystemResetWarning,0832.2,4.99,000.00,029.7,028.2,000.0,038.2,031.3,32.7,0000.0,0004.57,0008.30,0004.02
2023-06-12 03:13:00,SystemResetWarning,0832.2,5.01,000.00,029.8,028.3,000.0,038.3,031.4,32.6,0000.0,0004.71,0008.31,0004.17
2023-06-12 03:14:00,SystemResetWarning,0831.9,5.01,000.00,029.8,028.3,000.0,038.3,031.4,32.7,0000.6,0004.84,0008.42,0004.32
2023-06-12 03:15:00,SystemResetWarning,0832.0,5.00,000.00,029.8,028.3,000.0,038.3,031.4,32.5,0000.9,0004.98,0008.77,0004.45
2023-06-12 03:16:00,SystemResetWarning,0832.2,4.99,000.00,029.8,028.3,000.0,038.3,031.4,32.3,0001.0,0005.13,0009.68,0004.57
2023-06-12 03:17:00,SystemResetWarning,0832.1,4.99,000.00,029.8,028.4,000.0,038.3,031.5,32.3,0001.4,0005.27,0009.82,0004.69
2023-06-12 03:18:00,SystemResetWarning,0832.1,5.00,000.00,029.8,028.4,000.0,038.3,031.5,32.3,0001.3,0005.39,0010.07,0004.78
2023-06-12 03:19:00,SystemResetWarning,0831.9,5.02,000.00,029.9,028.4,000.0,038.4,031.5,32.2,0001.1,0005.49,0010.31,0004.83
2023-06-12 03:20:00,SystemResetWarning,0831.8,5.01,000.00,029.9,028.4,000.0,038.4,031.5,32.3,0001.0,0005.54,0010.41,0004.86
2023-06-12 03:21:00,SystemResetWarning,0831.8,4.98,000.00,029.9,028.4,000.0,038.4,031.5,32.3,0000.0,0005.55,0010.44,0004.87
2023-06-12 03:22:00,SystemResetWarning,0831.9,5.00,000.00,029.9,028.5,000.0,038.4,031.5,32.2,0000.2,0005.58,0010.50,0004.87
2023-06-12 03:23:00,SystemResetWarning,0831.8,5.02,000.00,029.9,028.5,000.0,038.4,031.5,31.8,0000.8,0005.58,0009.96,0004.86
2023-06-12 03:24:00,SystemResetWarning,0831.8,5.00,000.00,029.9,028.5,000.0,038.4,031.5,31.5,0001.0,0005.55,0010.00,0004.83
2023-06-12 03:25:00,SystemResetWarning,0831.9,4.98,000.00,030.0,028.5,000.0,038.4,031.6,31.3,0000.8,0005.47,0009.93,0004.79
2023-06-12 03:26:00,SystemResetWarning,0831.9,5.00,000.00,030.0,028.5,000.0,038.4,031.6,31.3,0000.7,0005.42,0009.82,0004.76
2023-06-12 03:27:00,SystemResetWarning,0831.8,5.01,000.00,030.0,028.5,000.0,038.5,031.6,31.1,0000.8,0005.37,0008.93,0004.75
2023-06-12 03:28:00,SystemResetWarning,0831.9,5.01,000.00,030.0,028.5,000.0,038.5,031.6,31.0,0001.3,0005.33,0008.78,0004.73
2023-06-12 03:29:00,SystemResetWarning,0832.1,5.00,000.00,030.0,028.5,000.0,038.5,031.6,30.9,0001.7,0005.25,0008.77,0004.72
2023-06-12 03:30:00,SystemResetWarning,0832.0,5.00,000.00,030.0,028.5,000.0,038.5,031.6,30.9,0001.4,0005.20,0009.03,0004.70
2023-06-12 03:31:00,SystemResetWarning,0832.1,4.98,000.00,030.0,028.5,000.0,038.5,031.7,30.9,0001.2,0005.14,0009.34,0004.66
2023-06-12 03:32:00,SystemResetWarning,0832.0,5.00,000.00,030.0,028.5,000.0,038.5,031.7,30.9,0001.3,0005.12,0009.34,0004.64
2023-06-12 03:33:00,SystemResetWarning,0832.1,5.01,000.00,030.0,028.5,000.0,038.5,031.7,30.9,0001.9,0005.06,0009.22,0004.64
2023-06-12 03:34:00,SystemResetWarning,0832.3,5.01,000.00,030.1,028.6,000.0,038.6,031.7,30.9,0002.3,0005.03,0009.21,0004.65
2023-06-12 03:35:00,SystemResetWarning,0832.3,5.00,000.00,030.1,028.6,000.0,038.6,031.7,30.9,0002.2,0005.02,0009.16,0004.66
2023-06-12 03:36:00,SystemResetWarning,0832.2,5.00,000.00,030.1,028.6,000.0,038.6,031.7,30.9,0002.3,0005.08,0009.70,0004.69
2023-06-12 03:37:00,SystemResetWarning,0832.1,5.01,000.00,030.1,028.6,000.0,038.6,031.7,31.0,0002.6,0005.11,0009.83,0004.72
2023-06-12 03:38:00,SystemResetWarning,0831.7,5.00,000.00,030.1,028.6,000.0,038.6,031.7,31.0,0002.4,0005.16,0009.96,0004.74
2023-06-12 03:39:00,SystemResetWarning,0831.7,4.99,000.00,030.1,028.6,000.0,038.6,031.8,31.0,0002.1,0005.20,0009.98,0004.77
2023-06-12 03:40:00,SystemResetWarning,0831.7,5.00,000.00,030.1,028.6,000.0,038.6,031.7,31.1,0001.6,0005.29,0010.05,0004.83
2023-06-12 03:41:00,SystemResetWarning,0831.7,4.99,000.00,030.1,028.6,000.0,038.6,031.7,31.2,0002.0,0005.36,0009.93,0004.89
2023-06-12 03:42:00,SystemResetWarning,0832.1,5.00,000.00,030.1,028.6,000.0,038.7,031.7,31.2,0002.0,0005.42,0009.31,0004.95
2023-06-12 03:43:00,SystemResetWarning,0832.1,5.01,000.00,030.1,028.6,000.0,038.7,031.8,31.2,0001.9,0005.51,0009.40,0005.03
2023-06-12 03:44:00,SystemResetWarning,0831.8,5.01,000.00,030.1,028.6,000.0,038.7,031.7,31.2,0001.7,0005.59,0009.53,0005.10
2023-06-12 03:45:00,SystemResetWarning,0831.8,5.00,000.00,030.1,028.6,000.0,038.7,031.8,31.3,0001.4,0005.68,0010.18,0005.16
2023-06-12 03:46:00,SystemResetWarning,0831.8,5.00,000.00,030.1,028.6,000.0,038.7,031.8,31.3,0001.4,0005.76,0010.27,0005.22
2023-06-12 03:47:00,SystemResetWarning,0831.8,5.00,000.00,030.1,028.6,000.0,038.7,031.7,31.3,0001.4,0005.83,0010.05,0005.28
2023-06-12 03:48:00,SystemResetWarning,0832.2,4.99,000.00,030.1,028.6,000.0,038.7,031.7,31.3,0001.3,0005.91,0009.92,0005.35
2023-06-12 03:49:00,SystemResetWarning,0831.7,4.99,000.00,030.1,028.6,000.0,038.7,031.8,31.3,0001.4,0006.00,0010.02,0005.43
2023-06-12 03:50:00,SystemResetWarning,0831.6,5.00,000.00,030.1,028.6,000.0,038.7,031.7,31.3,0001.5,0006.08,0010.14,0005.51
2023-06-12 03:51:00,SystemResetWarning,0831.5,5.00,000.00,030.2,028.6,000.0,038.7,031.8,31.3,0001.8,0006.14,0010.23,0005.56
2023-06-12 03:52:00,SystemResetWarning,0831.4,5.00,000.00,030.2,028.6,000.0,038.7,031.7,31.3,0001.7,0006.18,0010.32,0005.60
2023-06-12 03:53:00,SystemResetWarning,0831.3,5.00,000.00,030.2,028.6,000.0,038.7,031.7,31.3,0001.8,0006.23,0010.42,0005.64
2023-06-12 03:54:00,SystemResetWarning,0831.3,5.00,000.00,030.2,028.6,000.0,038.7,031.7,31.2,0001.6,0006.26,0010.51,0005.67
2023-06-12 03:55:00,SystemResetWarning,0831.4,5.01,000.00,030.2,028.6,000.0,038.7,031.7,31.1,0001.6,0006.30,0010.59,0005.70
2023-06-12 03:56:00,SystemResetWarning,0831.5,5.00,000.00,030.2,028.6,000.0,038.7,031.7,31.0,0001.2,0006.35,0010.28,0005.72
2023-06-12 03:57:00,SystemResetWarning,0831.7,5.00,000.00,030.1,028.6,000.0,038.7,031.6,31.0,0001.1,0006.38,0010.37,0005.75
2023-06-12 03:58:00,SystemResetWarning,0831.9,5.00,000.00,030.1,028.6,000.0,038.7,031.7,31.0,0001.0,0006.40,0010.44,0005.76
2023-06-12 03:59:00,SystemResetWarning,0832.0,5.00,000.00,030.1,028.6,000.0,038.7,031.7,30.9,0001.1,0006.38,0010.77,0005.76
